TimeKST,TemperatureF,Dew PointF,Humidity,Sea Level PressureIn,VisibilityMPH,Wind Direction,Wind SpeedMPH,Gust SpeedMPH,PrecipitationIn,Events,Conditions,WindDirDegrees,DateUTC
12:00 AM,35,20,42,30.12,,East,3.5,,,,,90,2013-03-26 15:00:00
12:55 AM,32.4,32.2,99,30.11,10.0,Calm,Calm,-,N/A,,Clear,0,2013-03-26 15:55:00
1:55 AM,32.2,31.8,99,30.10,9.0,Calm,Calm,-,N/A,,Partly Cloudy,0,2013-03-26 16:55:00
2:04 AM,32.0,32.0,100,30.10,8.0,Calm,Calm,-,N/A,,Partly Cloudy,0,2013-03-26 17:04:00
2:50 AM,32.0,32.0,100,30.10,9.0,Calm,Calm,-,N/A,,Scattered Clouds,0,2013-03-26 17:50:00
2:55 AM,33.1,32.9,99,30.10,10.0,Calm,Calm,-,N/A,,Scattered Clouds,0,2013-03-26 17:55:00
3:00 AM,31,22,59,30.11,,East,4.5,,,,,90,2013-03-26 18:00:00
3:04 AM,32.0,32.0,100,30.10,9.0,Calm,Calm,-,N/A,,Partly Cloudy,0,2013-03-26 18:04:00
3:55 AM,31.5,31.5,100,30.09,8.0,Calm,Calm,-,N/A,,Clear,0,2013-03-26 18:55:00
4:55 AM,29.3,29.3,100,30.08,7.0,Calm,Calm,-,N/A,,Clear,0,2013-03-26 19:55:00
5:55 AM,28.8,28.8,100,30.08,6.0,SE,3.5,-,N/A,,Clear,140,2013-03-26 20:55:00
6:00 AM,32,25,65,30.10,,Calm,Calm,,,,,,2013-03-26 21:00:00
6:15 AM,30.2,30.2,100,30.08,7.0,Calm,Calm,-,N/A,,Clear,0,2013-03-26 21:15:00
6:55 AM,28.8,28.8,100,30.08,5.0,Calm,Calm,-,N/A,,Clear,0,2013-03-26 21:55:00
7:55 AM,34.2,34.2,100,30.08,6.0,Calm,Calm,-,N/A,,Clear,0,2013-03-26 22:55:00
8:55 AM,39.2,38.7,98,30.08,7.0,Calm,Calm,-,N/A,,Clear,0,2013-03-26 23:55:00
9:00 AM,39,26,48,30.09,,NNW,2.2,,,,,340,2013-03-27 00:00:00
9:55 AM,45.1,34.0,65,30.08,10.0,Calm,Calm,-,N/A,,Clear,0,2013-03-27 00:55:00
10:55 AM,49.6,31.1,49,30.05,10.0,Calm,Calm,-,N/A,,Clear,0,2013-03-27 01:55:00
11:55 AM,54.5,30.9,41,30.03,10.0,Calm,Calm,-,N/A,,Partly Cloudy,0,2013-03-27 02:55:00
12:00 PM,55,28,23,30.01,,North,4.6,,,,,0,2013-03-27 03:00:00
12:55 PM,57.7,22.1,25,30.00,10.0,West,6.9,-,N/A,,Partly Cloudy,270,2013-03-27 03:55:00
1:55 PM,59.7,21.2,23,29.97,10.0,WNW,10.4,-,N/A,,Partly Cloudy,290,2013-03-27 04:55:00
2:55 PM,60.8,23.4,24,29.94,10.0,NNW,10.4,-,N/A,,Clear,330,2013-03-27 05:55:00
3:00 PM,61,17,9,29.90,,WNW,13.4,,,,,290,2013-03-27 06:00:00
3:55 PM,60.8,25.5,26,29.93,10.0,West,10.4,-,N/A,,Clear,280,2013-03-27 06:55:00
4:55 PM,55.4,29.3,37,29.93,10.0,WNW,11.5,-,N/A,,Clear,290,2013-03-27 07:55:00
5:55 PM,51.3,23.5,34,29.94,10.0,NW,10.4,-,N/A,,Clear,310,2013-03-27 08:55:00
6:00 PM,61,24,14,29.88,,West,5.8,,,,,270,2013-03-27 09:00:00
6:55 PM,45.1,27.7,50,29.95,10.0,West,6.9,-,N/A,,Clear,280,2013-03-27 09:55:00
7:55 PM,41.2,24.4,51,29.96,10.0,West,6.9,-,N/A,,Clear,280,2013-03-27 10:55:00
8:55 PM,40.1,22.8,50,29.98,10.0,Calm,Calm,-,N/A,,Clear,0,2013-03-27 11:55:00
9:00 PM,51,19,16,29.95,,SSW,8.9,,,,,200,2013-03-27 12:00:00
9:55 PM,39.4,29.1,67,29.99,10.0,Calm,Calm,-,N/A,,Clear,0,2013-03-27 12:55:00
10:55 PM,37.9,27.7,67,30.02,10.0,Calm,Calm,-,N/A,,Clear,0,2013-03-27 13:55:00
11:55 PM,34.9,34.7,99,30.03,10.0,Calm,Calm,-,N/A,,Clear,0,2013-03-27 14:55:00